Temperature
13 13 14 14 14 15 15 16 16 18 18 16 16 15 15 15 15 15 15 16 16 16 16 16 16 16 16 16 16 16 16 16 16 16 16 16 16 16
11 12 13 13 14 14 14 15 15 16 17 17 15 15 14 14 14 15 15 15 15 15 16 16 16 16 16 16 16 16 16 16 16 16 16 16 16 16
10 11 11 12 13 13 13 14 14 15 15 16 15 14 14 14 14 14 14 14 14 15 15 15 15 16 16 16 16 16 16 16 16 16 16 16 16 16
10 10 10 11 11 12 12 13 13 14 14 15 15 14 14 14 13 13 13 13 14 14 14 14 15 15 15 15 15 15 15 15 15 15 15 16 16 16
10 10 10 10 10 11 11 12 12 13 13 14 14 14 13 13 13 13 13 13 13 13 13 14 14 14 14 14 14 15 15 15 15 15 15 15 15 15
9 9 9 9 10 10 10 11 11 12 12 13 13 13 13 13 13 13 12 12 12 12 12 13 13 13 13 13 13 14 14 14 14 14 14 14 14 14
9 9 9 9 9 9 10 10 11 11 12 12 13 13 13 13 12 12 12 12 12 12 12 12 12 12 12 12 12 13 13 13 13 13 13 13 14 14
9 9 9 9 9 9 9 10 10 11 11 12 12 13 13 13 12 12 12 12 11 11 11 11 11 11 11 12 12 12 12 12 12 13 13 13 13 13
9 9 9 10 9 9 9 9 10 10 10 11 12 12 13 13 13 12 12 12 12 12 11 11 11 11 11 11 11 11 11 12 12 12 12 12 12 12
9 9 9 9 9 9 9 9 9 10 10 11 11 12 12 12 13 13 12 12 11 11 11 10 10 10 10 11 11 11 11 11 11 11 11 11 11 11
9 9 8 9 8 8 8 9 9 10 10 11 11 11 12 12 12 12 11 11 11 10 10 10 9 9 9 10 10 10 10 10 10 10 10 10 10 10
8 8 8 8 8 8 8 8 9 9 10 10 11 11 11 11 12 12 12 11 11 10 10 10 9 9 8 8 9 9 9 9 10 10 10 10 10 9
9 9 9 9 8 8 8 8 9 9 10 10 10 11 11 11 11 11 12 12 12 11 11 10 10 10 10 8 8 8 8 9 9 9 9 9 9 8
8 9 9 9 8 8 8 8 8 9 9 10 10 10 11 11 11 11 11 11 11 12 12 11 11 10 10 9 8 8 8 8 8 8 8 9 9 9
8 8 8 8 8 8 8 8 8 8 9 9 10 10 11 11 11 11 11 10 11 11 11 11 11 10 10 10 9 8 8 8 7 8 8 8 8 8
7 7 8 8 8 7 8 8 8 8 9 9 10 10 10 10 10 10 10 10 10 10 10 10 10 10 10 10 10 9 8 8 8 8 8 7 7 7
7 7 7 7 7 7 7 8 8 8 8 9 9 10 10 10 10 10 10 10 10 9 9 9 9 10 10 10 9 9 9 8 8 8 8 8 8 8
7 7 7 7 8 8 8 8 8 8 9 9 9 10 10 10 10 10 10 10 10 10 9 9 9 9 9 9 9 9 9 9 8 8 8 8 8 8
6 7 7 7 8 8 8 8 8 9 9 9 9 9 9 10 9 9 9 10 10 10 10 9 9 10 10 10 9 9 9 9 8 8 8 9 9 9
7 7 7 8 8 8 8 8 9 9 9 9 9 9 9 9 9 9 9 9 10 10 9 9 10 10 11 11 10 9 9 9 9 9 9 9 9 9
7 7 7 8 8 8 8 8 8 8 9 9 9 9 9 9 9 9 9 9 10 10 10 10 10 10 11 11 10 10 9 9 9 9 9 10 10 9
7 7 7 7 7 7 8 8 8 8 8 9 9 9 9 9 9 9 9 9 10 10 10 10 10 10 11 11 11 10 9 9 9 9 9 10 10 11
6 6 7 7 7 7 7 8 8 8 8 8 9 9 9 9 9 10 10 10 10 10 10 10 10 10 11 11 11 11 10 9 9 9 9 10 10 10
Wind_Speed
10 11 10 10 10 10 10 9 9 8 7 7 6 5 4 4 3 3 5 9 8 6 4 3 1 2 4 6 7 10 11 13 14 16 18 21 23 24
8 9 10 9 9 9 10 10 10 10 8 5 5 7 5 4 5 5 7 10 10 9 8 6 5 3 1 1 3 5 7 9 11 12 14 17 19 21
9 9 10 10 8 8 9 9 10 10 10 7 5 7 7 5 5 5 6 6 8 10 10 9 8 7 6 5 3 1 2 4 6 8 9 11 13 16
11 11 10 8 10 9 8 10 10 10 11 11 7 7 7 8 7 6 5 6 8 12 12 11 11 10 9 8 7 5 4 2 1 1 3 4 6 8
12 12 11 10 10 9 9 9 9 10 10 10 9 7 6 8 8 7 7 6 7 10 12 13 13 13 12 11 11 10 9 8 7 6 6 5 5 5
13 12 12 11 11 10 9 10 9 10 10 10 9 8 7 8 9 8 6 6 6 6 8 10 12 14 14 13 13 12 13 13 13 13 13 13 13 13
14 14 13 12 9 8 9 9 9 9 9 10 9 8 8 9 9 8 8 7 5 5 6 5 6 7 9 11 13 13 14 15 16 17 17 18 18 18
15 14 13 13 13 13 12 11 10 11 11 10 10 11 11 11 10 10 10 9 5 5 6 5 5 6 6 9 12 14 15 16 17 18 19 20 21 21
15 14 13 13 14 13 14 16 16 16 14 12 12 12 13 13 14 14 13 11 7 9 8 5 5 6 7 11 13 14 15 16 18 19 20 21 21 22
16 15 14 13 12 12 12 14 15 16 16 15 14 13 12 12 15 15 13 9 9 8 7 5 6 6 7 9 12 14 15 16 18 19 20 22 23 23
16 15 15 15 12 10 12 14 14 13 14 15 14 11 8 10 12 12 13 12 10 7 6 6 8 8 7 8 11 14 15 16 17 17 18 19 21 20
14 14 14 14 10 13 13 14 14 13 12 13 13 12 12 13 15 16 15 15 11 7 8 7 11 9 6 6 8 10 12 13 14 13 11 9 5 9
12 12 12 16 15 13 13 13 12 10 11 11 12 12 12 13 14 14 12 13 13 8 12 10 11 9 7 8 7 8 10 10 11 10 8 8 9 6
12 11 8 14 15 14 12 12 9 8 10 10 10 10 11 12 12 12 11 8 6 9 14 12 10 10 10 11 9 9 9 9 9 8 9 8 9 11
11 6 2 10 11 11 13 12 10 10 11 10 10 10 10 12 12 10 10 8 9 11 14 11 11 10 11 11 11 10 9 9 8 8 8 7 7 8
13 10 9 10 10 9 8 11 11 11 11 10 9 9 9 11 12 12 12 11 11 10 10 11 11 12 10 12 12 12 11 9 10 9 8 7 7 7
11 11 11 11 12 12 11 11 11 11 11 10 9 10 10 11 12 13 13 13 12 12 12 10 11 9 9 11 12 12 11 10 10 9 8 8 7 7
7 10 11 11 12 12 12 11 11 11 11 10 10 10 11 13 13 13 13 14 14 13 13 13 12 11 10 8 7 12 10 10 10 10 9 8 8 8
10 11 11 11 11 11 11 11 11 11 10 10 10 11 12 13 15 15 14 13 14 13 14 14 14 13 13 12 8 7 10 10 11 10 9 7 7 8
10 10 10 10 10 10 10 10 9 9 10 10 11 12 13 14 15 16 15 15 15 15 14 14 13 12 11 11 10 10 9 11 10 10 10 8 5 5
9 9 8 9 9 9 8 8 9 9 10 10 10 12 13 14 14 15 15 18 16 16 16 14 11 9 8 8 11 11 10 6 3 7 9 9 8 8
6 7 7 7 7 7 8 8 9 9 10 10 10 11 12 13 15 16 16 17 15 15 15 12 12 10 9 10 11 12 11 11 6 2 4 5 6 7
5 5 5 6 6 6 7 9 10 9 10 10 10 11 13 13 14 15 16 15 15 15 14 13 12 11 10 9 10 10 13 13 11 11 10 12 10 6
Wind_Direction
256 251 249 250 245 239 235 234 238 237 225 192 194 164 167 134 127 111 95 85 75 76 86 102 152 214 226 231 234 235 235 234 232 231 231 231 230 231
255 256 253 249 247 242 235 233 234 243 246 202 188 166 160 147 128 114 103 101 84 78 77 79 83 92 118 190 219 232 235 233 231 232 233 232 230 230
246 248 250 253 248 244 239 233 230 232 237 229 189 162 165 167 145 134 128 113 94 80 78 76 76 76 75 75 75 86 225 229 230 233 237 235 231 229
244 244 244 247 248 244 241 235 231 229 232 231 205 182 176 167 151 143 130 110 99 87 82 78 75 73 72 72 70 71 74 86 129 177 215 224 223 217
240 240 241 237 243 242 238 239 236 231 231 234 219 187 172 159 148 139 126 117 108 106 94 84 77 75 72 70 70 71 74 76 79 83 87 93 103 120
238 239 239 236 235 238 236 233 235 236 227 229 223 194 175 166 159 153 147 140 125 110 94 93 90 82 75 70 72 74 77 79 79 80 82 85 86 88
236 235 236 234 239 239 245 235 228 230 229 223 218 204 186 175 175 170 159 144 129 139 126 113 109 95 89 79 74 76 80 82 83 83 83 83 83 83
236 236 234 223 221 221 237 247 248 238 233 228 220 213 198 188 180 172 161 158 154 158 138 109 100 90 80 80 78 83 85 86 85 85 85 84 84 84
236 235 238 230 213 225 221 223 236 241 246 246 236 225 207 191 182 179 179 178 162 157 146 119 112 99 90 82 82 85 88 89 89 89 88 87 86 86
234 233 234 241 232 229 234 231 230 227 227 233 240 238 226 200 189 183 173 151 131 147 158 135 136 117 103 93 87 89 91 93 93 94 94 94 91 86
235 233 232 232 222 211 238 244 242 237 225 223 233 239 231 194 180 167 160 154 149 158 172 143 143 130 118 112 101 97 97 99 100 101 103 104 104 97
229 232 228 231 218 195 229 239 240 238 234 215 216 218 211 186 177 180 173 168 158 159 176 157 154 147 131 130 132 128 114 107 106 105 102 96 98 117
230 227 225 194 204 204 226 241 246 248 237 227 214 206 199 190 187 187 183 178 172 166 168 167 168 169 146 147 148 146 142 142 135 125 106 69 45 86
237 236 221 172 186 200 219 237 242 245 241 230 217 204 192 186 184 181 177 176 173 159 164 168 168 169 152 152 151 157 159 157 152 142 134 118 87 74
241 243 167 158 181 207 221 223 224 229 230 226 217 205 191 179 171 164 153 142 129 140 157 168 162 163 161 159 154 159 162 163 161 154 152 153 147 143
236 219 191 190 224 251 221 210 221 224 223 221 213 199 180 170 167 161 154 147 140 143 154 163 162 165 166 158 157 161 167 165 167 165 160 156 159 155
216 221 222 217 216 219 223 222 216 213 215 215 205 189 177 170 166 162 158 155 153 154 156 157 160 167 158 159 162 165 168 165 165 161 170 167 165 166
217 221 222 221 221 219 218 215 213 211 208 202 194 185 176 168 163 161 161 160 158 157 157 157 157 156 156 155 164 168 169 167 163 169 188 179 173 173
220 227 226 222 222 221 218 213 209 204 198 193 187 181 173 166 163 163 163 161 158 158 159 161 164 166 166 163 169 198 175 166 166 176 192 194 184 175
226 228 226 223 220 220 215 209 203 195 191 187 181 177 171 166 165 165 164 162 159 159 162 168 173 177 177 167 162 172 191 175 176 181 187 195 172 119
222 227 229 226 222 219 213 204 197 191 185 180 175 173 168 166 166 166 162 161 161 163 167 171 170 175 167 153 156 164 175 180 178 193 189 191 190 192
222 226 227 224 219 215 205 195 189 182 175 171 169 168 166 165 165 163 161 164 167 165 165 157 158 173 175 174 169 164 169 174 181 235 266 248 218 211
225 227 223 212 202 192 185 181 175 168 164 161 161 162 162 161 162 160 160 164 165 161 155 155 164 176 179 179 176 168 168 177 188 197 215 223 231 229
Height
1476 1477 1479 1481 1484 1486 1488 1490 1493 1493 1494 1495 1496 1496 1496 1496 1496 1497 1498 1499 1500 1502 1503 1504 1506 1508 1510 1512 1513 1515 1517 1518 1520 1521 1523 1524 1526 1528
1469 1470 1472 1474 1476 1479 1481 1484 1486 1488 1489 1491 1492 1492 1493 1493 1493 1494 1495 1496 1497 1498 1499 1501 1503 1504 1505 1507 1509 1510 1512 1513 1514 1515 1516 1518 1519 1521
1463 1464 1464 1467 1469 1471 1474 1476 1479 1482 1484 1487 1488 1488 1488 1490 1491 1492 1493 1493 1494 1495 1497 1498 1499 1500 1502 1503 1504 1505 1506 1507 1508 1509 1510 1511 1512 1514
1458 1459 1459 1460 1461 1464 1467 1469 1472 1475 1478 1481 1483 1484 1484 1486 1488 1489 1491 1491 1492 1493 1494 1495 1496 1497 1498 1499 1500 1501 1502 1503 1503 1504 1505 1506 1507 1508
1453 1454 1454 1455 1455 1457 1460 1462 1465 1469 1472 1475 1477 1479 1481 1482 1484 1486 1488 1489 1490 1491 1492 1493 1494 1495 1496 1497 1497 1498 1498 1499 1500 1501 1501 1501 1502 1503
1447 1447 1448 1449 1451 1452 1453 1456 1459 1462 1465 1469 1471 1474 1476 1478 1480 1483 1485 1487 1489 1490 1491 1492 1493 1494 1494 1495 1495 1496 1496 1497 1498 1499 1499 1499 1499 1500
1440 1441 1442 1444 1445 1446 1449 1450 1453 1456 1459 1462 1465 1468 1471 1473 1476 1479 1482 1484 1487 1488 1490 1491 1492 1493 1494 1495 1495 1495 1496 1497 1497 1498 1498 1498 1498 1499
1433 1435 1436 1437 1438 1440 1442 1445 1447 1450 1454 1456 1458 1462 1464 1467 1471 1474 1478 1481 1484 1486 1488 1490 1492 1493 1494 1495 1495 1496 1497 1497 1497 1498 1499 1499 1499 1499
1426 1428 1430 1432 1433 1435 1436 1438 1441 1443 1447 1449 1452 1456 1459 1462 1465 1469 1473 1477 1480 1482 1487 1489 1491 1492 1494 1495 1496 1497 1498 1498 1498 1499 1500 1500 1501 1501
1419 1421 1423 1425 1428 1430 1432 1434 1436 1437 1439 1442 1446 1450 1454 1457 1461 1465 1469 1473 1477 1481 1485 1487 1490 1492 1493 1495 1496 1497 1498 1499 1500 1501 1502 1502 1503 1503
1412 1415 1417 1419 1421 1423 1426 1428 1430 1432 1434 1437 1440 1444 1448 1452 1455 1460 1464 1468 1472 1477 1482 1485 1488 1491 1493 1495 1496 1498 1499 1500 1501 1503 1503 1504 1505 1505
1405 1407 1410 1412 1415 1417 1419 1422 1424 1426 1429 1431 1434 1437 1442 1446 1450 1454 1458 1463 1467 1473 1477 1482 1485 1489 1493 1495 1496 1498 1500 1501 1502 1504 1505 1506 1506 1508
1399 1401 1403 1405 1408 1410 1413 1416 1418 1421 1423 1425 1428 1431 1435 1440 1444 1449 1454 1459 1463 1467 1472 1477 1482 1487 1489 1493 1496 1498 1500 1502 1503 1505 1506 1507 1508 1510
1393 1396 1398 1399 1402 1404 1407 1409 1412 1414 1417 1419 1422 1425 1428 1433 1438 1444 1449 1455 1460 1465 1469 1474 1479 1483 1487 1490 1494 1498 1501 1503 1505 1506 1507 1508 1510 1511
1387 1390 1392 1394 1396 1399 1400 1403 1405 1408 1411 1413 1415 1419 1423 1428 1434 1439 1445 1451 1457 1462 1467 1472 1477 1481 1485 1488 1492 1496 1499 1503 1506 1507 1509 1510 1511 1512
1380 1383 1386 1388 1390 1393 1395 1396 1398 1401 1404 1407 1410 1414 1418 1423 1429 1434 1440 1447 1453 1460 1465 1471 1476 1480 1484 1488 1491 1494 1498 1502 1505 1507 1509 1511 1512 1514
1374 1377 1379 1382 1383 1386 1388 1390 1393 1395 1398 1401 1405 1409 1413 1419 1424 1431 1437 1444 1450 1456 1463 1469 1474 1479 1484 1487 1491 1494 1498 1501 1504 1506 1509 1512 1513 1514
1369 1371 1373 1375 1377 1379 1382 1384 1386 1389 1392 1395 1399 1404 1409 1414 1420 1427 1434 1441 1448 1454 1461 1466 1472 1477 1483 1487 1490 1493 1497 1500 1503 1505 1508 1511 1513 1514
1363 1365 1367 1369 1371 1373 1375 1378 1380 1383 1387 1390 1394 1399 1405 1410 1417 1423 1431 1438 1446 1452 1459 1464 1470 1474 1479 1483 1488 1492 1495 1498 1501 1504 1507 1510 1513 1514
1358 1360 1361 1363 1365 1368 1370 1373 1375 1378 1382 1386 1391 1396 1401 1407 1414 1421 1429 1436 1443 1450 1457 1463 1468 1473 1477 1481 1485 1489 1493 1497 1500 1503 1506 1509 1511 1512
1354 1355 1357 1359 1361 1363 1365 1368 1371 1374 1378 1383 1387 1392 1399 1405 1412 1420 1427 1435 1442 1448 1455 1461 1466 1472 1477 1481 1484 1488 1491 1495 1498 1501 1505 1507 1509 1510
1350 1351 1352 1354 1356 1358 1360 1363 1367 1371 1375 1379 1385 1390 1397 1403 1411 1418 1425 1433 1441 1447 1454 1460 1465 1471 1475 1479 1482 1486 1489 1492 1496 1498 1501 1504 1507 1509
1347 1347 1348 1349 1351 1354 1357 1360 1364 1368 1373 1378 1384 1390 1396 1403 1411 1418 1425 1433 1440 1446 1452 1458 1464 1470 1474 1478 1481 1484 1488 1491 1494 1497 1499 1501 1503 1505